DateTimeUTC,F1_A11,F1_S11,BsB_S11,BsG_S11,BsR_S11,BbsB_S11,BbsG_S11,BbsR_S11,BaB_A11,BaG_A11,BaR_A11,Tu_S11,T_S11,Uu_S11,U_S11,P_S11,T1_A11
2021-10-23T23:00:00Z,00000200,21000000,,,,,,,0000.14,-000.06,-000.22,17.4,24.2,,00.0,0644.6,31.0
2021-10-23T23:01:00Z,00000200,21000000,,,,,,,0000.50,0000.15,0000.57,17.4,24.2,,00.0,0644.6,31.0
2021-10-23T23:02:00Z,00000200,21000000,,,,,,,-000.01,0000.01,0000.05,17.4,24.2,,00.0,0644.6,31.0
2021-10-23T23:03:00Z,00000200,61000000,,,,,,,-000.19,-000.15,-000.42,17.4,24.3,,00.0,0644.6,31.0
2021-10-23T23:04:00Z,00000200,41000000,0000.49,0000.18,-000.17,0000.21,0000.29,-000.17,0000.05,0000.37,0000.26,17.8,24.2,,00.0,0645.4,31.0
2021-10-23T23:05:00Z,00000200,01000000,0000.37,0000.20,-000.07,0000.13,-000.01,-000.08,-000.25,-000.16,-000.23,17.9,24.2,,00.0,0645.6,31.0
2021-10-23T23:06:00Z,00000200,01000000,0000.24,0000.16,0000.07,0000.40,-000.12,-000.00,0000.12,0000.09,-000.28,17.9,24.2,,00.0,0645.6,31.0
2021-10-23T23:07:00Z,00000200,01000000,0000.95,0000.11,-000.07,0000.41,-000.09,-000.05,0000.15,0000.24,0000.65,17.9,24.2,,00.0,0645.5,31.0
2021-10-23T23:08:00Z,00000200,01000000,-000.15,0000.36,-000.22,0000.03,0000.05,0000.23,0000.14,0000.18,-000.32,17.9,24.2,,00.0,0645.5,31.0
2021-10-23T23:09:00Z,00000200,01000000,0000.00,0000.18,0000.06,-000.01,0000.02,0000.40,-000.27,0000.00,0000.19,17.9,24.2,,00.0,0645.6,31.0
2021-10-23T23:10:00Z,00000200,01000000,0000.11,0000.24,0000.07,0000.33,0000.37,-000.07,0000.19,-000.32,-000.45,17.8,24.2,,00.0,0645.5,31.0
2021-10-23T23:11:00Z,00000200,01000000,0000.29,0000.24,0000.16,0001.01,-000.17,0000.20,-000.28,-000.40,0000.01,17.8,24.1,,00.0,0645.5,31.0
2021-10-23T23:12:00Z,00000200,01000000,-000.14,0000.11,-000.02,0000.69,0000.29,-000.04,0000.26,0000.74,0000.67,17.8,24.1,,00.0,0645.5,31.0
2021-10-23T23:13:00Z,00000200,01000000,-000.02,0000.21,-000.18,0000.97,-000.08,-000.26,-000.30,-000.22,-000.11,17.8,24.1,,00.0,0645.5,31.0
2021-10-23T23:14:00Z,00000200,01000000,0000.39,0000.10,-000.22,0000.04,0000.10,-000.14,0000.70,-000.12,0000.05,17.8,24.1,,00.0,0645.5,31.0
2021-10-23T23:15:00Z,00000200,01000000,0000.14,0000.03,-000.19,0000.31,0000.16,0000.08,-000.51,0000.13,-000.12,17.8,24.1,,00.0,0645.4,31.0
2021-10-23T23:16:00Z,00000200,01000000,-000.39,-000.28,0000.15,0000.72,0000.08,0000.15,0000.41,0000.08,0000.10,17.9,24.2,,00.0,0645.4,31.0
2021-10-23T23:17:00Z,00000200,01000000,0000.04,-000.04,-000.09,0000.61,0000.33,0000.03,-000.07,0000.26,0000.29,17.9,24.2,,00.0,0645.3,31.0
2021-10-23T23:18:00Z,00000200,01000000,-000.12,-000.24,0000.08,0000.69,-000.17,0000.21,-000.21,-000.16,-000.45,18.0,24.2,,00.0,0645.3,31.0
2021-10-23T23:19:00Z,00000200,01000000,0000.31,0000.05,0000.12,0000.26,0000.13,-000.22,-000.16,0000.00,0000.01,18.0,24.2,,00.0,0645.4,31.0
2021-10-23T23:20:00Z,00000200,01000000,0000.13,0000.20,-000.19,0000.65,0000.19,-000.12,0000.31,0000.22,0000.17,18.0,24.2,,00.0,0645.3,31.0
2021-10-23T23:21:00Z,00000200,01000000,-000.76,-000.35,-000.05,0000.11,-000.18,0000.06,-000.32,-000.46,-000.23,17.9,24.2,,00.0,0645.3,31.0
2021-10-23T23:22:00Z,00000200,01000000,-000.15,-000.07,0000.20,0001.02,0000.18,0000.26,0000.16,-000.09,0000.20,17.8,24.2,,00.0,0645.2,31.0
2021-10-23T23:23:00Z,00000200,01000000,-000.08,0000.35,-000.23,0000.62,0000.05,-000.05,-000.21,0000.16,-000.14,17.8,24.2,,00.0,0645.3,31.0
2021-10-23T23:24:00Z,00000200,01000000,-000.15,-000.30,0000.26,0000.34,0000.00,0000.24,0000.14,-000.02,-000.15,17.7,24.1,,00.0,0645.2,30.9
2021-10-23T23:25:00Z,00000200,01000000,0000.24,-000.03,0000.26,0000.63,0000.10,0000.33,0000.12,0000.01,0000.03,17.6,24.0,,00.0,0645.2,30.9
2021-10-23T23:26:00Z,00000200,01000000,-000.51,-000.12,0000.10,0000.25,0000.40,0000.46,0000.37,-000.21,0000.26,17.5,24.0,,00.0,0645.2,30.9
2021-10-23T23:27:00Z,00000200,01000000,0000.30,-000.21,-000.27,-000.72,-000.27,-000.10,-000.73,0000.24,-000.17,17.5,24.0,,00.0,0645.3,30.9
2021-10-23T23:28:00Z,00000200,01000000,-000.47,0000.38,0000.20,0000.13,0000.03,0000.11,0000.41,-000.35,-000.16,17.5,24.0,,00.0,0645.3,30.9
2021-10-23T23:29:00Z,00000200,01000000,-000.22,0000.39,0000.01,0000.32,-000.11,0000.17,0000.05,0000.59,0000.23,17.6,24.0,,00.0,0645.1,31.0
2021-10-23T23:30:00Z,00000200,01000000,0000.11,0000.24,-000.04,-000.16,-000.25,0000.25,0000.45,0000.21,0000.07,17.7,24.1,,00.0,0645.2,31.0
2021-10-23T23:31:00Z,00000200,01000000,-000.05,-000.07,0000.33,0000.13,-000.04,0000.26,-000.14,0000.01,0000.01,17.7,24.1,,00.0,0645.2,31.0
2021-10-23T23:32:00Z,00000200,01000000,0000.23,-000.30,-000.12,-000.37,0000.22,-000.18,-000.35,-000.15,0000.26,17.8,24.1,,00.0,0645.2,31.0
2021-10-23T23:33:00Z,00000200,01000000,-000.09,0000.08,0000.05,-000.01,0000.18,-000.10,0000.44,0000.17,-000.03,17.8,24.1,,00.0,0645.2,31.0
2021-10-23T23:34:00Z,00000200,01000000,0000.02,0000.31,0000.03,0000.15,0000.09,-000.05,-000.09,0000.19,-000.08,17.9,24.1,,00.0,0645.2,31.0
2021-10-23T23:35:00Z,00000200,01000000,-000.25,0000.19,0000.21,0000.30,0000.19,0000.10,-000.04,-000.39,0000.35,17.9,24.1,,00.0,0645.2,31.0
2021-10-23T23:36:00Z,00000200,01000000,0000.68,0000.02,-000.15,-000.30,0000.02,0000.05,0000.26,0000.47,-000.13,17.9,24.2,,00.0,0645.2,31.0
2021-10-23T23:37:00Z,00000200,01000000,0000.30,-000.17,-000.07,0000.67,-000.12,0000.00,-000.00,-000.14,-000.23,18.0,24.2,,00.0,0645.2,31.0
2021-10-23T23:38:00Z,00000200,01000000,-000.15,0000.12,0000.15,0000.27,-000.34,-000.09,-000.05,0000.16,-000.03,18.0,24.2,,00.0,0645.2,31.0
2021-10-23T23:39:00Z,00000200,01000000,0000.14,0000.39,0000.08,-000.10,0000.21,0000.28,-000.11,-000.19,0000.18,17.9,24.2,,00.0,0645.2,31.0
2021-10-23T23:40:00Z,00000200,01000000,0000.12,0000.02,0000.03,-000.22,0000.07,-000.01,-000.22,-000.36,-000.19,17.9,24.2,,00.0,0645.1,31.0
2021-10-23T23:41:00Z,00000200,01000000,-000.13,-000.20,0000.13,0000.27,0000.34,0000.08,0000.45,-000.12,0000.17,17.8,24.1,,00.0,0645.1,31.0
2021-10-23T23:42:00Z,00000200,01000000,-000.34,0000.11,-000.02,-000.27,-000.04,-000.16,-000.18,0000.36,0000.31,17.8,24.1,,00.0,0645.0,31.0
2021-10-23T23:43:00Z,00000200,01000000,0000.29,-000.13,0000.09,-000.20,-000.03,0000.28,0000.19,-000.03,-000.03,17.8,24.1,,00.0,0645.1,31.0
2021-10-23T23:44:00Z,00000200,01000000,-000.01,0000.11,-000.01,0000.19,0000.24,0000.20,-000.10,0000.34,-000.32,17.9,24.2,,00.0,0645.1,31.0
2021-10-23T23:45:00Z,00000200,01000000,-000.32,0000.04,0000.31,-000.58,0000.26,-000.13,-000.06,-000.13,0000.29,17.9,24.2,,00.0,0645.1,31.0
2021-10-23T23:46:00Z,00000200,01000000,-000.75,0000.27,0000.11,-000.01,0000.10,0000.23,-000.03,0000.07,-000.09,17.9,24.2,,00.0,0645.1,31.0
2021-10-23T23:47:00Z,00000200,01000000,-000.02,0000.19,0000.25,0000.29,0000.03,0000.16,0000.39,0000.19,0000.03,18.0,24.2,,00.0,0645.0,31.0
2021-10-23T23:48:00Z,00000200,01000000,-000.09,0000.41,-000.15,0000.81,0000.14,0000.00,0000.12,0000.10,0000.18,18.0,24.2,,00.0,0645.0,31.0
2021-10-23T23:49:00Z,00000200,01000000,0000.20,-000.08,-000.09,0000.36,-000.01,0000.12,-000.19,-000.10,0000.03,18.0,24.2,,00.0,0645.0,31.0
2021-10-23T23:50:00Z,00000200,01000000,0000.50,-000.03,0000.11,-000.24,0000.27,0000.24,0000.03,0000.11,-000.25,17.9,24.2,,00.0,0645.0,31.0
2021-10-23T23:51:00Z,00000200,01000000,-000.11,-000.18,0000.14,-000.49,0000.37,-000.15,-000.48,-000.54,-000.23,17.8,24.2,,00.0,0645.0,31.0
2021-10-23T23:52:00Z,00000200,01000000,0000.28,0000.10,-000.39,-000.36,0000.12,0000.17,-000.09,-000.45,-000.24,17.7,24.1,,00.0,0645.0,30.9
2021-10-23T23:53:00Z,00000200,01000000,-000.47,0000.19,0000.15,0000.18,-000.04,-000.16,0000.18,0000.44,0000.07,17.6,24.1,,00.0,0644.9,30.9
2021-10-23T23:54:00Z,00000200,01000000,0000.29,-000.04,0000.09,0000.17,0000.27,-000.01,0000.16,-000.50,0000.23,17.5,24.0,,00.0,0644.9,30.9
2021-10-23T23:55:00Z,00000200,01000000,-000.36,-000.23,-000.02,0000.88,-000.01,0000.09,-000.48,0000.19,-000.50,17.4,24.0,,00.0,0645.0,30.9
2021-10-23T23:56:00Z,00000200,01000000,0000.15,-000.22,0000.54,0000.58,0000.04,0000.47,0000.30,0000.13,0000.21,17.4,23.9,,00.0,0645.0,30.9
2021-10-23T23:57:00Z,00000200,41000000,,,,,,,0000.26,0000.41,0000.09,17.4,24.0,,00.0,0645.0,30.9
2021-10-23T23:58:00Z,00000200,61000000,,,,,,,-000.10,0000.06,0000.13,17.2,24.1,,00.0,0644.0,30.9
2021-10-23T23:59:00Z,00000200,21000000,,,,,,,-000.03,-000.22,-000.03,17.2,24.2,,00.0,0644.0,31.0
